OpenBCM V1.13 (Linux)

Packet Radio Mailbox

DB0FHN

[JN59NK Nuernberg]

 Login: GUEST





  
I0OJJ  > KEPS     27.02.25 06:33l 333 Lines 15768 Bytes #999 (0) @ AMSAT
BID : ORB25058.1
Read: DJ6UX GUEST
Subj: 2Line Orbital Elements 25058.AMSAT
Path: DB0FHN<DB0FFL<OE5XBL<OE6XPE<DB0ERF<DK0WUE<PD0LPM<IR0AAB<I0OJJ<I0OJJ
Sent: 250227/0345z @:I0OJJ.ITA.EU [Rome] obcm1.08-6-g5b69

>From i0ojj%i0ojj.ita.eu@i0ojj.ampr.org Thu Feb 27 04:45:07 2025
Received: from i0ojj.ampr.org by i0ojj.ampr.org (JNOS2.0p.6) with SMTP
	id AA17024455 ; Thu, 27 Feb 2025 04:45:07 +0100
Message-Id: <ORB25058.1@i0ojj.bbs>
>From: i0ojj@i0ojj.ita.eu
X-JNOS-User-Port: Telnet   (i0ojj @ 44.134.109.10)  -> Sending message

From: I0OJJ @ I0OJJ.ITA.EU (Gustavo)
To:   KEPS @ AMSAT
X-Info: This message was generated automatically


QST de W1STR

AMSAT Orbital Elements for Amateur Satellites in TLE Format
>From Orbital Analysis Office
New England Sci-Tech STEM Education Center
Natick, MA February 27, 2025
To all radio amateurs


These element sets describe the orbits of various satellites 
in use by the amateur radio community. For details see:
www.amsat.org/keplerian-elements-formats/

A daily update of element sets is available at:
www.amsat.org/tle/daily-bulletin.txt
or without bulletin text:
www.amsat.org/tle/dailytle.txt


AO-07
1 07530U 74089B   25057.55893791 -.00000023  00000-0  14725-3 0  9997
2 07530 101.9945  60.7227 0012002 319.8049 158.5248 12.53686652300919
UO-11
1 14781U 84021B   25057.52542001  .00004991  00000-0  53883-3 0  9997
2 14781  97.7413  26.0486 0006791 329.1352  30.9465 14.88785781186300
AO-27
1 22825U 93061C   25057.41770381  .00000380  00000-0  16232-3 0  9996
2 22825  98.7515 118.3971 0009278  59.7103 300.4996 14.30737454638968
FO-29
1 24278U 96046B   25057.46330347  .00000030  00000-0  69327-4 0  9991
2 24278  98.5863 324.8780 0348933 249.6657 106.6673 13.53238695408821
NOAA-15
1 25338U 98030A   25057.80533385  .00000494  00000-0  22111-3 0  9992
2 25338  98.5470  85.3574 0009243 303.2082  56.8212 14.26894785393748
GO-32
1 25397U 98043D   25057.49510398  .00000352  00000-0  17262-3 0  9999
2 25397  98.9594  34.5243 0002065 120.3083 239.8300 14.24261674383616
ISS
1 25544U 98067A   25057.69551956  .00051272  00000-0  91556-3 0  9991
2 25544  51.6387 134.2889 0005831 315.8203 179.6729 15.49515680498024
NO-44
1 26931U 01043C   25057.67490054  .00000717  00000-0  29969-3 0  9996
2 26931  67.0514  33.8840 0005897 265.3006  94.7422 14.31634476222534
SO-50
1 27607U 02058C   25057.53594478  .00003730  00000-0  49007-3 0  9997
2 27607  64.5552 158.4868 0044180 359.6345   0.4720 14.81033202193968
CO-55
1 27844U 03031E   25057.80785313  .00001051  00000-0  47796-3 0  9999
2 27844  98.6794  67.4003 0010661 122.5685 237.6525 14.23842868124040
CO-57
1 27848U 03031J   25057.49797337  .00000900  00000-0  41703-3 0  9991
2 27848  98.6822  67.1764 0010346 138.8221 221.3740 14.23199525123709
RS-22
1 27939U 03042A   25057.84795644  .00003607  00000-0  58463-3 0  9990
2 27939  98.3152 224.9020 0011163 339.9670 156.5658 14.71838229145717
NOAA-18
1 28654U 05018A   25057.77568539  .00000479  00000-0  27750-3 0  9992
2 28654  98.8491 138.3914 0014966  64.1219 296.1494 14.13526970 19221
CO-58
1 28895U 05043F   25057.37773292  .00005451  00000-0  91030-3 0  9994
2 28895  98.2304 200.5841 0013914 273.7803  86.1812 14.70267749 31779
CO-65
1 32785U 08021C   25057.52348196  .00013896  00000-0  10489-2 0  9994
2 32785  97.7743  28.1206 0009890 191.8074 168.2920 15.02492625913590
AAUSAT2
1 32788U 08021F   25057.55531444  .00154883  00000-0  26336-2 0  9990
2 32788  97.6057  49.8886 0005185  77.7630 282.4201 15.50858847917339
CO-66
1 32791U 08021J   25057.40278598  .00027166  00000-0  14748-2 0  9993
2 32791  97.7195  35.4855 0006010 136.1723 223.9986 15.14487991914857
RS-30
1 32953U 08025A   25057.79087902  .00000046  00000-0  25803-3 0  9999
2 32953  82.5011 291.1267 0018680 270.7602  89.1338 12.43159379760757
NOAA-19
1 33591U 09005A   25057.76531900  .00000447  00000-0  26225-3 0  9990
2 33591  99.0109 121.8423 0012816 295.3740  64.6105 14.13295620827585
SRMSAT
1 37841U 11058D   25057.39415999  .00000752  00000-0  26546-3 0  9996
2 37841  19.9725  58.9429 0011765  11.1448 136.1503 14.11371226690512
ZACUBE-1
1 39417U 13066B   25057.37520465  .00014151  00000-0  12753-2 0  9993
2 39417  97.7683  15.1299 0047239  39.0294 321.4320 14.94816761609484
Delfi-N3xt
1 39428U 13066N   25057.76569250  .00021405  00000-0  22882-2 0  9997
2 39428  97.8374 336.7256 0088136 340.0977  19.6807 14.85917324603974
GOMX-1
1 39430U 13066Q   25057.85806029  .00005511  00000-0  86786-3 0  9992
2 39430  97.6983 282.7814 0134382 160.5063 200.1353 14.66919125600348
LO-74
1 39440U 13066AA  25057.41029498  .00008982  00000-0  93892-3 0  9993
2 39440  97.8400   2.8555 0064648 158.4864 201.9092 14.88336194606089
AO-73
1 39444U 13066AE  25057.83425322  .00021357  00000-0  17023-2 0  9991
2 39444  97.7526  19.6898 0042409  15.6836 344.5690 14.99635777608767
DTUSAT-2
1 40030U 14033W   25057.38823673  .00018792  00000-0  12995-2 0  9992
2 40030  98.0437  24.4624 0011397  55.9465 304.2841 15.05711144580854
EO-80
1 40032U 14033Y   25057.61343505  .00018201  00000-0  12558-2 0  9991
2 40032  98.0325  24.4926 0008756   5.7433 354.3891 15.05824509580862
LILACSAT-2
1 40908U 15049K   25057.83314583  .00022169  00000-0  64618-3 0  9992
2 40908  97.5152  75.8916 0010809 158.1437 202.0269 15.35331843522449
IO-86
1 40931U 15052B   25038.81889873  .00001817  00000-0  15548-3 0  9993
2 40931   6.0001 108.1159 0012838 187.7041 172.2889 14.78568669506492
Horyu-4
1 41340U 16012D   25057.47397420  .00036638  00000-0  12045-2 0  9997
2 41340  31.0001 102.2268 0006751  82.8912 277.2500 15.30317340496941
Lapan A3
1 41603U 16040E   25057.84144705  .00007711  00000-0  27873-3 0  9993
2 41603  97.1393  66.5432 0009221 276.9640  83.0552 15.28675911482082
CAS-2T
1 41847U 16066G   25057.80323570  .00004549  00000-0  65303-3 0  9992
2 41847  98.4300 133.1507 0348694 129.2472 234.0216 14.43028945436192
CAS-4B
1 42759U 17034B   25057.77975006  .00071328  00000-0  12785-2 0  9998
2 42759  43.0100 208.1327 0018262 291.3929  68.4982 15.48854560426582
CAS-4A
1 42761U 17034D   25057.80572028  .00074147  00000-0  13022-2 0  9999
2 42761  43.0140 205.8823 0019512 297.4219  62.4656 15.49391003426606
TechnoSat
1 42829U 17042E   25057.73009559  .00008572  00000-0  68358-3 0  9991
2 42829  97.3882 231.4027 0011860 274.6862  85.3008 15.00491720415298
AO-91
1 43017U 17073E   25057.37381886  .00017528  00000-0  93699-3 0  9998
2 43017  97.5479 290.8249 0181543 157.1289 203.8154 15.01992395393706
S-Net D
1 43186U 18014G   25057.65954781  .00012268  00000-0  75682-3 0  9990
2 43186  97.5729 321.6824 0008222 208.1280 151.9506 15.10043020386835
S-Net B
1 43187U 18014H   25057.66371629  .00012292  00000-0  75849-3 0  9998
2 43187  97.5734 321.6529 0009126 204.0483 156.0321 15.10027075386831
S-Net A
1 43188U 18014J   25057.79279000  .00012070  00000-0  74440-3 0  9993
2 43188  97.5746 321.9176 0008987 203.8477 156.2337 15.10049940386856
S-Net C
1 43189U 18014K   25057.66588076  .00012509  00000-0  77153-3 0  9997
2 43189  97.5759 321.7888 0010763 198.3170 161.7673 15.10023915385387
Ten-Koh
1 43677U 18084G   25057.54522415  .00008630  00000-0  70596-3 0  9992
2 43677  98.0880 225.7018 0009860 248.2404 111.7769 14.99562120344792
PO-101
1 43678U 18084H   25057.78612181  .00005841  00000-0  50707-3 0  9992
2 43678  98.0935 230.0808 0007909 270.1828  89.8487 14.97424854344999
QO-100
1 43700U 18090A   25057.10322611  .00000144  00000-0  00000-0 0  9996
2 43700   0.0095 111.3562 0001227 254.9173 212.8583  1.00271381 22907
MinXSS-2
1 43758U 18099A   25057.41308054  .00030918  00000-0  13984-2 0  9996
2 43758  97.5165 123.3859 0013677 156.5172 203.6691 15.20778415341267
AO-95
1 43770U 18099N   25057.61021469  .00019990  00000-0  10957-2 0  9998
2 43770  97.5079 116.9591 0011135 203.1802 156.8929 15.14171265340953
RANGE-A
1 43773U 18099R   25057.11432635  .00009538  00000-0  63216-3 0  9991
2 43773  97.4651 108.5371 0011868 180.0201 180.1029 15.07436521340629
MOVE-II
1 43780U 18099Y   25057.59011028  .00113846  00000-0  24609-2 0  9990
2 43780  97.4813 128.1285 0004228 168.4354 191.6992 15.44063588341762
SNUSat 2
1 43782U 18099AA  25057.40333382  .00017338  00000-0  10091-2 0  9991
2 43782  97.4766 114.3092 0013678 146.2473 213.9632 15.12022206340898
SnugLite
1 43784U 18099AC  25057.59556569  .00019916  00000-0  10838-2 0  9990
2 43784  97.4573 113.8849 0004651 142.0154 218.1406 15.14472115341034
ITASat 1
1 43786U 18099AE  25057.57075265  .00016244  00000-0  97989-3 0  9993
2 43786  97.4729 114.2597 0014829 197.7970 162.2743 15.10726782340899
EAGLET 1
1 43790U 18099AJ  25057.59673904  .00009753  00000-0  64426-3 0  9991
2 43790  97.4924 114.5352 0012709 176.1770 183.9557 15.07548021340546
ESEO
1 43792U 18099AL  25057.56342235  .00005405  00000-0  41729-3 0  9991
2 43792  97.4583 109.0873 0011290 147.1793 213.0136 15.01901379340353
CSIM
1 43793U 18099AM  25057.64012682  .00119272  00000-0  25536-2 0  9996
2 43793  97.4994 130.1899 0006621 143.7396 216.4302 15.44313952341619
JO-97
1 43803U 18099AX  25057.57131056  .00024821  00000-0  12515-2 0  9995
2 43803  97.4822 117.7405 0008977 140.9314 219.2569 15.17099484341134
Suomi 100
1 43804U 18099AY  25057.56960328  .00021682  00000-0  11519-2 0  9992
2 43804  97.4892 117.2862 0014169 143.3973 216.8231 15.15231232341082
ISAT
1 43879U 18111D   25057.49875232  .00037731  00000-0  15581-2 0  9995
2 43879  97.6034 330.0094 0009382 184.9206 175.1940 15.23877915337966
UWE-4
1 43880U 18111E   25057.50899992  .00031288  00000-0  14028-2 0  9994
2 43880  97.5971 329.1293 0012253 201.4786 158.5937 15.21093569337937
Sparrow
1 43881U 18111F   25057.81656177  .00038271  00000-0  15371-2 0  9996
2 43881  97.6160 332.8495 0005673 225.0141 135.0637 15.24834980336095
Prox-1
1 44339U 19036A   25057.55714721  .00023277  00000-0  32232-2 0  9998
2 44339  23.9989  16.9569 0007201 335.2475  24.7675 14.76525577302757
